Time,TemperatureF,DewpointF,PressureIn,WindDirection,WindDirectionDegrees,WindSpeedMPH,WindSpeedGustMPH,Humidity,HourlyPrecipIn,Conditions,Clouds,dailyrainin,SoftwareType,DateUTC
2013-02-11 00:00:00,42.5,29.6,29.96,SSW,203,24.0,24.0,60,0.00,CLR,,0.00,WeatherDisplay:10.37,2013-02-11 05:00:00,
2013-02-11 00:05:00,41.8,30.9,29.96,SW,217,17.3,17.3,65,0.00,CLR,,0.00,WeatherDisplay:10.37,2013-02-11 05:05:00,
2013-02-11 00:10:00,41.0,31.6,29.96,SSW,200,20.0,20.0,69,0.01,RA,,0.01,WeatherDisplay:10.37,2013-02-11 05:10:00,
2013-02-11 00:15:00,40.6,31.9,29.96,SSW,194,14.0,14.0,71,0.02,RA,,0.02,WeatherDisplay:10.37,2013-02-11 05:15:00,
2013-02-11 00:20:00,39.9,31.9,29.95,South,184,16.1,16.1,73,0.02,RA,,0.02,WeatherDisplay:10.37,2013-02-11 05:20:00,
2013-02-11 00:25:00,39.6,32.0,29.95,SSW,192,14.0,14.0,74,0.02,,,0.03,WeatherDisplay:10.37,2013-02-11 05:25:00,
2013-02-11 00:30:00,39.3,32.4,29.94,South,190,18.4,18.4,76,0.04,RA,,0.04,WeatherDisplay:10.37,2013-02-11 05:30:00,
2013-02-11 00:35:00,39.2,32.3,29.94,South,187,17.3,17.3,76,0.04,RA,,0.04,WeatherDisplay:10.37,2013-02-11 05:35:00,
2013-02-11 00:40:00,39.1,32.5,29.94,South,178,12.0,12.0,77,0.05,RA,,0.05,WeatherDisplay:10.37,2013-02-11 05:40:00,
2013-02-11 00:45:00,38.9,32.3,29.94,SSW,192,15.0,15.0,77,0.05,RA,,0.05,WeatherDisplay:10.37,2013-02-11 05:45:00,
2013-02-11 00:51:00,38.8,32.5,29.94,SSW,198,18.4,18.4,78,0.05,CLR,,0.05,WeatherDisplay:10.37,2013-02-11 05:51:00,
2013-02-11 00:56:00,38.7,32.4,29.94,SSW,195,16.1,16.1,78,0.05,CLR,,0.05,WeatherDisplay:10.37,2013-02-11 05:56:00,
2013-02-11 01:01:00,38.6,32.3,29.93,SSW,200,17.3,17.3,78,0.05,CLR,,0.05,WeatherDisplay:10.37,2013-02-11 06:01:00,
2013-02-11 01:06:00,38.5,32.6,29.93,SSW,192,17.3,17.3,79,0.05,CLR,,0.05,WeatherDisplay:10.37,2013-02-11 06:06:00,
2013-02-11 01:11:00,38.5,32.6,29.93,SSW,213,16.1,16.1,79,0.04,CLR,,0.05,WeatherDisplay:10.37,2013-02-11 06:11:00,
2013-02-11 01:16:00,38.4,32.8,29.93,SSW,201,12.0,12.0,80,0.03,CLR,,0.05,WeatherDisplay:10.37,2013-02-11 06:16:00,
2013-02-11 01:21:00,38.3,32.7,29.92,SW,218,15.0,15.0,80,0.03,CLR,,0.05,WeatherDisplay:10.37,2013-02-11 06:21:00,
2013-02-11 01:26:00,38.3,32.7,29.92,South,181,15.0,15.0,80,0.03,CLR,,0.05,WeatherDisplay:10.37,2013-02-11 06:26:00,
2013-02-11 01:31:00,38.4,33.1,29.92,SSW,200,17.3,17.3,81,0.01,CLR,,0.05,WeatherDisplay:10.37,2013-02-11 06:31:00,
2013-02-11 01:36:00,38.4,33.1,29.91,South,188,14.0,14.0,81,0.01,CLR,,0.05,WeatherDisplay:10.37,2013-02-11 06:36:00,
2013-02-11 01:41:00,38.4,33.1,29.91,South,187,16.0,16.0,81,0.00,CLR,,0.05,WeatherDisplay:10.37,2013-02-11 06:41:00,
2013-02-11 01:46:00,38.5,33.5,29.91,SSW,211,17.3,17.3,82,0.00,CLR,,0.05,WeatherDisplay:10.37,2013-02-11 06:46:00,
2013-02-11 01:51:00,38.6,33.6,29.91,SSW,198,11.5,11.5,82,0.00,CLR,,0.05,WeatherDisplay:10.37,2013-02-11 06:51:00,
2013-02-11 01:56:00,38.6,33.6,29.91,SSW,199,13.0,13.0,82,0.00,CLR,,0.05,WeatherDisplay:10.37,2013-02-11 06:56:00,
2013-02-11 02:01:00,38.7,33.7,29.90,South,172,15.0,15.0,82,0.00,CLR,,0.05,WeatherDisplay:10.37,2013-02-11 07:01:00,
2013-02-11 02:06:00,38.8,33.8,29.90,South,173,11.0,11.0,82,0.00,CLR,,0.05,WeatherDisplay:10.37,2013-02-11 07:06:00,
2013-02-11 02:11:00,38.7,33.7,29.90,SE,132,10.4,10.4,82,0.00,CLR,,0.05,WeatherDisplay:10.37,2013-02-11 07:11:00,
2013-02-11 02:16:00,38.8,34.1,29.89,SSE,153,11.0,11.0,83,0.00,CLR,,0.05,WeatherDisplay:10.37,2013-02-11 07:16:00,
2013-02-11 02:21:00,38.8,34.1,29.89,South,169,11.5,11.5,83,0.00,CLR,,0.05,WeatherDisplay:10.37,2013-02-11 07:21:00,
2013-02-11 02:26:00,38.9,34.2,29.89,SSW,207,7.0,7.0,83,0.00,CLR,,0.05,WeatherDisplay:10.37,2013-02-11 07:26:00,
2013-02-11 02:31:00,38.9,34.2,29.89,South,186,11.5,11.5,83,0.00,CLR,,0.05,WeatherDisplay:10.37,2013-02-11 07:31:00,
2013-02-11 02:36:00,38.9,34.2,29.88,SSW,196,7.0,7.0,83,0.00,CLR,,0.05,WeatherDisplay:10.37,2013-02-11 07:36:00,
2013-02-11 02:41:00,38.9,34.2,29.88,SSW,202,10.4,10.4,83,0.00,CLR,,0.05,WeatherDisplay:10.37,2013-02-11 07:41:00,
2013-02-11 02:46:00,38.9,34.2,29.88,South,183,9.2,9.2,83,0.00,CLR,,0.05,WeatherDisplay:10.37,2013-02-11 07:46:00,
2013-02-11 02:51:00,39.0,34.3,29.88,SSW,195,9.2,9.2,83,0.00,CLR,,0.05,WeatherDisplay:10.37,2013-02-11 07:51:00,
2013-02-11 02:56:00,39.1,34.7,29.88,SSW,195,11.5,11.5,84,0.00,CLR,,0.05,WeatherDisplay:10.37,2013-02-11 07:56:00,
2013-02-11 03:01:00,39.2,34.8,29.89,SW,223,10.4,10.4,84,0.00,CLR,,0.05,WeatherDisplay:10.37,2013-02-11 08:01:00,
2013-02-11 03:06:00,39.2,34.8,29.88,South,185,11.5,11.5,84,0.00,CLR,,0.05,WeatherDisplay:10.37,2013-02-11 08:06:00,
2013-02-11 03:11:00,39.3,34.9,29.87,SSW,192,12.0,12.0,84,0.00,CLR,,0.05,WeatherDisplay:10.37,2013-02-11 08:11:00,
2013-02-11 03:16:00,39.4,35.0,29.87,South,178,12.0,12.0,84,0.00,CLR,,0.05,WeatherDisplay:10.37,2013-02-11 08:16:00,
2013-02-11 03:21:00,39.7,35.3,29.86,SSW,193,17.3,17.3,84,0.00,CLR,,0.05,WeatherDisplay:10.37,2013-02-11 08:21:00,
2013-02-11 03:26:00,40.1,35.7,29.86,SSW,202,13.0,13.0,84,0.00,CLR,,0.05,WeatherDisplay:10.37,2013-02-11 08:26:00,
2013-02-11 03:31:00,39.9,35.5,29.86,SSW,195,11.5,11.5,84,0.00,CLR,,0.05,WeatherDisplay:10.37,2013-02-11 08:31:00,
2013-02-11 03:36:00,39.9,35.5,29.86,SSW,192,11.5,11.5,84,0.00,CLR,,0.05,WeatherDisplay:10.37,2013-02-11 08:36:00,
2013-02-11 03:41:00,40.0,35.6,29.85,SSW,201,12.0,12.0,84,0.00,CLR,,0.05,WeatherDisplay:10.37,2013-02-11 08:41:00,
2013-02-11 03:46:00,40.4,35.9,29.85,SW,215,13.0,13.0,84,0.00,CLR,,0.05,WeatherDisplay:10.37,2013-02-11 08:46:00,
2013-02-11 03:51:00,40.7,36.2,29.85,SSW,196,13.0,13.0,84,0.00,CLR,,0.05,WeatherDisplay:10.37,2013-02-11 08:51:00,
2013-02-11 03:56:00,41.0,36.5,29.85,SSW,210,14.0,14.0,84,0.00,CLR,,0.05,WeatherDisplay:10.37,2013-02-11 08:56:00,
2013-02-11 04:01:00,41.3,36.8,29.85,SSW,207,11.5,11.5,84,0.00,CLR,,0.05,WeatherDisplay:10.37,2013-02-11 09:01:00,
2013-02-11 04:06:00,41.4,36.6,29.84,SSW,207,11.5,11.5,83,0.00,CLR,,0.05,WeatherDisplay:10.37,2013-02-11 09:06:00,
2013-02-11 04:11:00,41.4,36.6,29.85,SSW,212,10.4,10.4,83,0.00,CLR,,0.05,WeatherDisplay:10.37,2013-02-11 09:11:00,
2013-02-11 04:16:00,41.4,36.6,29.85,SW,234,11.5,11.5,83,0.00,CLR,,0.05,WeatherDisplay:10.37,2013-02-11 09:16:00,
2013-02-11 04:21:00,41.3,36.5,29.84,SW,227,13.8,13.8,83,0.00,CLR,,0.05,WeatherDisplay:10.37,2013-02-11 09:21:00,
2013-02-11 04:26:00,41.4,36.6,29.84,SSW,211,16.1,16.1,83,0.00,CLR,,0.05,WeatherDisplay:10.37,2013-02-11 09:26:00,
2013-02-11 04:31:00,41.6,36.8,29.84,SSW,205,10.4,10.4,83,0.00,CLR,,0.05,WeatherDisplay:10.37,2013-02-11 09:31:00,
2013-02-11 04:36:00,41.8,37.0,29.84,SW,226,17.0,17.0,83,0.00,CLR,,0.05,WeatherDisplay:10.37,2013-02-11 09:36:00,
2013-02-11 04:41:00,42.0,37.2,29.84,SSW,209,15.0,15.0,83,0.00,CLR,,0.05,WeatherDisplay:10.37,2013-02-11 09:41:00,
2013-02-11 04:46:00,42.2,37.4,29.84,SW,215,16.1,16.1,83,0.00,CLR,,0.05,WeatherDisplay:10.37,2013-02-11 09:46:00,
2013-02-11 04:51:00,42.4,37.6,29.84,SW,224,14.0,14.0,83,0.00,CLR,,0.05,WeatherDisplay:10.37,2013-02-11 09:51:00,
2013-02-11 04:56:00,42.4,37.3,29.83,SW,222,12.0,12.0,82,0.00,CLR,,0.05,WeatherDisplay:10.37,2013-02-11 09:56:00,
2013-02-11 05:01:00,42.4,37.3,29.83,SW,221,11.5,11.5,82,0.00,CLR,,0.05,WeatherDisplay:10.37,2013-02-11 10:01:00,
2013-02-11 05:06:00,42.6,37.5,29.83,SW,216,15.0,15.0,82,0.00,CLR,,0.05,WeatherDisplay:10.37,2013-02-11 10:06:00,
2013-02-11 05:11:00,42.5,37.4,29.83,SW,233,11.0,11.0,82,0.00,CLR,,0.05,WeatherDisplay:10.37,2013-02-11 10:11:00,
2013-02-11 05:16:00,42.4,37.3,29.84,SW,219,11.0,11.0,82,0.00,CLR,,0.05,WeatherDisplay:10.37,2013-02-11 10:16:00,
2013-02-11 05:21:00,42.7,37.6,29.84,SSW,202,11.5,11.5,82,0.00,CLR,,0.05,WeatherDisplay:10.37,2013-02-11 10:21:00,
2013-02-11 05:26:00,42.9,37.8,29.84,SW,221,16.1,16.1,82,0.00,CLR,,0.05,WeatherDisplay:10.37,2013-02-11 10:26:00,
2013-02-11 05:31:00,43.1,37.7,29.83,SSW,207,12.0,12.0,81,0.00,CLR,,0.05,WeatherDisplay:10.37,2013-02-11 10:31:00,
2013-02-11 05:36:00,43.3,37.9,29.83,SSW,200,13.0,13.0,81,0.00,CLR,,0.05,WeatherDisplay:10.37,2013-02-11 10:36:00,
2013-02-11 05:41:00,43.1,37.3,29.83,SSW,213,14.0,14.0,80,0.00,CLR,,0.05,WeatherDisplay:10.37,2013-02-11 10:41:00,
2013-02-11 05:46:00,43.2,37.8,29.83,SSW,201,15.0,15.0,81,0.00,CLR,,0.05,WeatherDisplay:10.37,2013-02-11 10:46:00,
2013-02-11 05:51:00,43.5,37.7,29.83,SW,225,15.0,15.0,80,0.00,CLR,,0.05,WeatherDisplay:10.37,2013-02-11 10:51:00,
2013-02-11 05:56:00,43.7,37.9,29.83,SSW,210,17.0,17.0,80,0.00,CLR,,0.05,WeatherDisplay:10.37,2013-02-11 10:56:00,
2013-02-11 06:01:00,44.1,38.3,29.82,SW,216,18.4,18.4,80,0.00,CLR,,0.05,WeatherDisplay:10.37,2013-02-11 11:01:00,
2013-02-11 06:06:00,44.3,38.5,29.82,SSW,197,18.4,18.4,80,0.00,CLR,,0.05,WeatherDisplay:10.37,2013-02-11 11:06:00,
2013-02-11 06:11:00,44.4,38.3,29.82,SW,230,19.6,19.6,79,0.00,CLR,,0.05,WeatherDisplay:10.37,2013-02-11 11:11:00,
2013-02-11 06:16:00,44.7,38.3,29.81,SSW,210,17.3,17.3,78,0.00,CLR,,0.05,WeatherDisplay:10.37,2013-02-11 11:16:00,
2013-02-11 06:21:00,44.7,38.3,29.81,SSW,209,15.0,15.0,78,0.00,CLR,,0.05,WeatherDisplay:10.37,2013-02-11 11:21:00,
2013-02-11 06:26:00,44.6,38.2,29.81,SW,214,17.3,17.3,78,0.00,CLR,,0.05,WeatherDisplay:10.37,2013-02-11 11:26:00,
2013-02-11 06:31:00,45.0,38.6,29.81,SW,229,20.0,20.0,78,0.00,CLR,,0.05,WeatherDisplay:10.37,2013-02-11 11:31:00,
2013-02-11 06:36:00,45.0,38.2,29.81,SW,219,17.3,17.3,77,0.00,CLR,,0.05,WeatherDisplay:10.37,2013-02-11 11:36:00,
2013-02-11 06:41:00,44.9,38.1,29.81,SW,221,22.0,22.0,77,0.00,CLR,,0.05,WeatherDisplay:10.37,2013-02-11 11:41:00,
2013-02-11 06:46:00,45.0,38.2,29.81,SSW,199,18.4,18.4,77,0.00,CLR,,0.05,WeatherDisplay:10.37,2013-02-11 11:46:00,
2013-02-11 06:51:00,45.0,38.2,29.81,SSW,199,17.0,17.0,77,0.00,CLR,,0.05,WeatherDisplay:10.37,2013-02-11 11:51:00,
2013-02-11 06:56:00,45.0,38.2,29.81,SSW,207,19.6,19.6,77,0.00,CLR,,0.05,WeatherDisplay:10.37,2013-02-11 11:56:00,
2013-02-11 07:01:00,45.2,38.4,29.81,SW,214,20.0,20.0,77,0.00,CLR,,0.05,WeatherDisplay:10.37,2013-02-11 12:01:00,
2013-02-11 07:06:00,45.0,38.2,29.81,South,191,20.0,20.0,77,0.00,CLR,,0.05,WeatherDisplay:10.37,2013-02-11 12:06:00,
2013-02-11 07:11:00,45.0,38.6,29.81,SW,219,15.0,15.0,78,0.00,CLR,,0.05,WeatherDisplay:10.37,2013-02-11 12:11:00,
2013-02-11 07:16:00,44.7,38.3,29.81,SW,234,16.1,16.1,78,0.00,CLR,,0.05,WeatherDisplay:10.37,2013-02-11 12:16:00,
2013-02-11 07:21:00,44.8,38.4,29.81,SW,230,12.0,12.0,78,0.00,CLR,,0.05,WeatherDisplay:10.37,2013-02-11 12:21:00,
2013-02-11 07:26:00,44.7,38.3,29.81,SW,220,13.0,13.0,78,0.00,CLR,,0.05,WeatherDisplay:10.37,2013-02-11 12:26:00,
2013-02-11 07:31:00,44.5,38.1,29.82,SW,227,13.0,13.0,78,0.00,CLR,,0.05,WeatherDisplay:10.37,2013-02-11 12:31:00,
2013-02-11 07:36:00,44.4,38.0,29.82,SW,223,12.0,12.0,78,0.00,CLR,,0.05,WeatherDisplay:10.37,2013-02-11 12:36:00,
2013-02-11 07:41:00,44.5,38.4,29.82,SW,224,12.0,12.0,79,0.00,CLR,,0.05,WeatherDisplay:10.37,2013-02-11 12:41:00,
2013-02-11 07:46:00,44.9,38.8,29.81,SW,215,13.8,13.8,79,0.00,CLR,,0.05,WeatherDisplay:10.37,2013-02-11 12:46:00,
2013-02-11 07:51:00,44.7,38.3,29.80,SW,219,12.0,12.0,78,0.00,CLR,,0.05,WeatherDisplay:10.37,2013-02-11 12:51:00,
2013-02-11 07:56:00,44.9,38.5,29.80,SW,214,13.0,13.0,78,0.00,CLR,,0.05,WeatherDisplay:10.37,2013-02-11 12:56:00,
2013-02-11 08:01:00,45.1,39.0,29.80,SSW,205,18.4,18.4,79,0.00,CLR,,0.05,WeatherDisplay:10.37,2013-02-11 13:01:00,
2013-02-11 08:06:00,45.7,39.2,29.80,SSW,202,17.3,17.3,78,0.00,CLR,,0.05,WeatherDisplay:10.37,2013-02-11 13:06:00,
2013-02-11 08:11:00,45.7,39.2,29.79,SW,225,12.0,12.0,78,0.00,CLR,,0.05,WeatherDisplay:10.37,2013-02-11 13:11:00,
2013-02-11 08:16:00,45.8,39.3,29.80,SW,215,13.8,13.8,78,0.00,CLR,,0.05,WeatherDisplay:10.37,2013-02-11 13:16:00,
2013-02-11 08:21:00,46.1,39.6,29.80,SSW,212,13.8,13.8,78,0.00,CLR,,0.05,WeatherDisplay:10.37,2013-02-11 13:21:00,
2013-02-11 08:26:00,46.4,39.9,29.80,SSW,210,15.0,15.0,78,0.00,CLR,,0.05,WeatherDisplay:10.37,2013-02-11 13:26:00,
2013-02-11 08:31:00,46.7,40.2,29.80,SW,236,11.5,11.5,78,0.00,CLR,,0.05,WeatherDisplay:10.37,2013-02-11 13:31:00,
2013-02-11 08:36:00,47.1,40.6,29.80,SSW,205,22.0,22.0,78,0.00,CLR,,0.05,WeatherDisplay:10.37,2013-02-11 13:36:00,
2013-02-11 08:41:00,47.8,41.3,29.79,SW,232,23.0,23.0,78,0.00,CLR,,0.05,WeatherDisplay:10.37,2013-02-11 13:41:00,
2013-02-11 08:46:00,48.1,41.2,29.79,SW,214,20.0,20.0,77,0.00,CLR,,0.05,WeatherDisplay:10.37,2013-02-11 13:46:00,
2013-02-11 08:51:00,48.5,41.6,29.79,SSW,202,19.6,19.6,77,0.00,CLR,,0.05,WeatherDisplay:10.37,2013-02-11 13:51:00,
2013-02-11 08:56:00,48.8,41.9,29.79,SW,214,20.0,20.0,77,0.00,CLR,,0.05,WeatherDisplay:10.37,2013-02-11 13:56:00,
2013-02-11 09:01:00,49.2,42.0,29.79,SW,230,18.4,18.4,76,0.00,CLR,,0.05,WeatherDisplay:10.37,2013-02-11 14:01:00,
2013-02-11 09:06:00,49.4,42.1,29.78,SW,219,22.0,22.0,76,0.00,CLR,,0.05,WeatherDisplay:10.37,2013-02-11 14:06:00,
2013-02-11 09:11:00,49.8,42.5,29.79,SSW,212,17.3,17.3,76,0.00,CLR,,0.05,WeatherDisplay:10.37,2013-02-11 14:11:00,
2013-02-11 09:16:00,50.1,42.8,29.78,SW,223,19.6,19.6,76,0.00,CLR,,0.05,WeatherDisplay:10.37,2013-02-11 14:16:00,
2013-02-11 09:21:00,50.6,43.0,29.77,SSW,213,23.0,23.0,75,0.00,CLR,,0.05,WeatherDisplay:10.37,2013-02-11 14:21:00,
2013-02-11 09:26:00,50.8,43.2,29.77,SW,217,25.3,25.3,75,0.00,CLR,,0.05,WeatherDisplay:10.37,2013-02-11 14:26:00,
2013-02-11 09:31:00,51.2,43.5,29.77,SW,229,23.0,23.0,75,0.00,CLR,,0.05,WeatherDisplay:10.37,2013-02-11 14:31:00,
2013-02-11 09:36:00,51.8,44.1,29.76,SW,225,22.0,22.0,75,0.00,CLR,,0.05,WeatherDisplay:10.37,2013-02-11 14:36:00,
2013-02-11 09:41:00,52.1,44.1,29.76,SW,231,26.5,26.5,74,0.00,CLR,,0.05,WeatherDisplay:10.37,2013-02-11 14:41:00,
2013-02-11 09:46:00,52.6,44.5,29.76,SW,235,21.0,21.0,74,0.00,CLR,,0.05,WeatherDisplay:10.37,2013-02-11 14:46:00,
2013-02-11 09:51:00,53.1,44.7,29.75,SSW,211,23.0,23.0,73,0.00,CLR,,0.05,WeatherDisplay:10.37,2013-02-11 14:51:00,
2013-02-11 09:56:00,53.5,44.7,29.74,SW,226,31.1,31.1,72,0.00,CLR,,0.05,WeatherDisplay:10.37,2013-02-11 14:56:00,
2013-02-11 10:01:00,53.8,45.0,29.75,West,265,28.0,28.0,72,0.00,CLR,,0.05,WeatherDisplay:10.37,2013-02-11 15:01:00,
2013-02-11 10:06:00,54.1,44.9,29.74,SW,229,25.3,25.3,71,0.00,CLR,,0.05,WeatherDisplay:10.37,2013-02-11 15:06:00,
2013-02-11 10:11:00,54.6,44.6,29.74,SW,234,26.5,26.5,69,0.00,CLR,,0.05,WeatherDisplay:10.37,2013-02-11 15:11:00,
2013-02-11 10:16:00,54.9,44.5,29.74,SW,225,28.0,28.0,68,0.00,,,0.05,WeatherDisplay:10.37,2013-02-11 15:16:00,
2013-02-11 10:21:00,55.3,44.9,29.74,SW,230,27.0,27.0,68,0.00,CLR,,0.05,WeatherDisplay:10.37,2013-02-11 15:21:00,
2013-02-11 10:26:00,55.6,44.8,29.74,WSW,243,40.0,40.0,67,0.00,CLR,,0.05,WeatherDisplay:10.37,2013-02-11 15:26:00,
2013-02-11 10:31:00,55.9,44.3,29.74,WSW,244,32.2,32.2,65,0.00,,,0.05,WeatherDisplay:10.37,2013-02-11 15:31:00,
2013-02-11 10:36:00,55.7,43.7,29.73,WSW,240,42.6,42.6,64,0.00,,,0.05,WeatherDisplay:10.37,2013-02-11 15:36:00,
2013-02-11 10:41:00,55.7,43.3,29.73,WSW,243,38.0,38.0,63,0.00,,,0.05,WeatherDisplay:10.37,2013-02-11 15:41:00,
2013-02-11 10:46:00,55.9,43.1,29.73,SW,227,35.0,35.0,62,0.00,,,0.05,WeatherDisplay:10.37,2013-02-11 15:46:00,
2013-02-11 10:51:00,55.9,42.6,29.72,WSW,241,37.0,37.0,61,0.00,,,0.05,WeatherDisplay:10.37,2013-02-11 15:51:00,
2013-02-11 10:56:00,55.8,42.5,29.72,SW,233,41.4,41.4,61,0.00,,,0.05,WeatherDisplay:10.37,2013-02-11 15:56:00,
2013-02-11 11:01:00,55.7,42.5,29.72,West,259,35.0,35.0,61,0.00,,,0.05,WeatherDisplay:10.37,2013-02-11 16:01:00,
2013-02-11 11:06:00,55.7,42.5,29.72,SW,229,31.1,31.1,61,0.00,CLR,,0.05,WeatherDisplay:10.37,2013-02-11 16:06:00,
2013-02-11 11:11:00,55.1,42.3,29.72,WSW,237,32.2,32.2,62,0.00,,,0.05,WeatherDisplay:10.37,2013-02-11 16:11:00,
2013-02-11 11:16:00,55.6,42.8,29.71,West,261,34.5,34.5,62,0.00,,,0.05,WeatherDisplay:10.37,2013-02-11 16:16:00,
2013-02-11 11:21:00,56.4,43.1,29.72,West,259,34.5,34.5,61,0.00,,,0.05,WeatherDisplay:10.37,2013-02-11 16:21:00,
2013-02-11 11:26:00,57.5,43.3,29.71,WSW,246,30.0,30.0,59,0.00,CLR,,0.05,WeatherDisplay:10.37,2013-02-11 16:26:00,
2013-02-11 11:31:00,58.1,44.3,29.71,West,269,27.0,27.0,60,0.00,CLR,,0.05,WeatherDisplay:10.37,2013-02-11 16:31:00,
2013-02-11 11:36:00,58.2,43.0,29.71,WNW,286,33.4,33.4,57,0.00,,,0.05,WeatherDisplay:10.37,2013-02-11 16:36:00,
2013-02-11 11:41:00,58.8,44.0,29.71,West,267,26.5,26.5,58,0.00,CLR,,0.05,WeatherDisplay:10.37,2013-02-11 16:41:00,
2013-02-11 11:46:00,59.0,43.8,29.71,SW,220,30.0,30.0,57,0.00,CLR,,0.05,WeatherDisplay:10.37,2013-02-11 16:46:00,
2013-02-11 11:51:00,59.0,42.4,29.71,West,265,30.0,30.0,54,0.00,CLR,,0.05,WeatherDisplay:10.37,2013-02-11 16:51:00,
2013-02-11 11:56:00,58.4,41.3,29.70,WSW,238,29.0,29.0,53,0.00,CLR,,0.05,WeatherDisplay:10.37,2013-02-11 16:56:00,
2013-02-11 12:01:00,57.3,39.8,29.70,WSW,252,40.3,40.3,52,0.00,,,0.05,WeatherDisplay:10.37,2013-02-11 17:01:00,
2013-02-11 12:06:00,57.7,40.2,29.70,SW,227,40.0,40.0,52,0.00,,,0.05,WeatherDisplay:10.37,2013-02-11 17:06:00,
2013-02-11 12:11:00,57.7,39.7,29.70,West,269,38.0,38.0,51,0.01,RA,,0.06,WeatherDisplay:10.37,2013-02-11 17:11:00,
2013-02-11 12:16:00,58.0,39.5,29.70,WSW,255,33.4,33.4,50,0.01,RA,,0.06,WeatherDisplay:10.37,2013-02-11 17:16:00,
2013-02-11 12:21:00,58.2,38.6,29.69,West,259,41.0,41.0,48,0.01,,,0.06,WeatherDisplay:10.37,2013-02-11 17:21:00,
2013-02-11 12:26:00,58.4,39.3,29.69,WSW,242,34.5,34.5,49,0.01,,,0.06,WeatherDisplay:10.37,2013-02-11 17:26:00,
2013-02-11 12:31:00,59.0,39.9,29.69,WSW,251,38.0,38.0,49,0.01,,,0.06,WeatherDisplay:10.37,2013-02-11 17:31:00,
2013-02-11 12:36:00,58.8,39.7,29.69,SSW,211,40.3,40.3,49,0.01,,,0.06,WeatherDisplay:10.37,2013-02-11 17:36:00,
2013-02-11 12:41:00,58.9,39.2,29.67,West,268,39.1,39.1,48,0.01,,,0.06,WeatherDisplay:10.37,2013-02-11 17:41:00,
2013-02-11 12:46:00,59.0,38.8,29.67,SW,229,33.4,33.4,47,0.01,,,0.06,WeatherDisplay:10.37,2013-02-11 17:46:00,
2013-02-11 12:51:00,59.1,37.8,29.66,SW,232,46.0,46.0,45,0.01,,,0.06,WeatherDisplay:10.37,2013-02-11 17:51:00,
2013-02-11 12:56:00,59.0,37.7,29.67,WSW,242,37.0,37.0,45,0.01,,,0.06,WeatherDisplay:10.37,2013-02-11 17:56:00,
2013-02-11 13:01:00,59.0,37.7,29.67,WSW,258,43.0,43.0,45,0.01,,,0.06,WeatherDisplay:10.37,2013-02-11 18:01:00,
2013-02-11 13:06:00,59.0,36.5,29.67,West,275,41.4,41.4,43,0.01,,,0.06,WeatherDisplay:10.37,2013-02-11 18:06:00,
2013-02-11 13:11:00,59.6,38.2,29.67,WSW,237,33.4,33.4,45,0.00,,,0.06,WeatherDisplay:10.37,2013-02-11 18:11:00,
2013-02-11 13:16:00,59.8,37.2,29.66,SW,234,42.6,42.6,43,0.00,,,0.06,WeatherDisplay:10.37,2013-02-11 18:16:00,
2013-02-11 13:21:00,59.6,35.9,29.66,West,259,41.4,41.4,41,0.00,,,0.06,WeatherDisplay:10.37,2013-02-11 18:21:00,
2013-02-11 13:26:00,59.8,38.4,29.66,WSW,245,35.0,35.0,45,0.00,,,0.06,WeatherDisplay:10.37,2013-02-11 18:26:00,
2013-02-11 13:31:00,59.8,36.6,29.66,WSW,244,35.0,35.0,42,0.00,,,0.06,WeatherDisplay:10.37,2013-02-11 18:31:00,
2013-02-11 13:36:00,59.8,36.0,29.65,WSW,256,41.0,41.0,41,0.00,,,0.06,WeatherDisplay:10.37,2013-02-11 18:36:00,
2013-02-11 13:41:00,59.7,35.9,29.64,WSW,242,42.6,42.6,41,0.00,,,0.06,WeatherDisplay:10.37,2013-02-11 18:41:00,
2013-02-11 13:46:00,60.0,38.0,29.65,SW,223,30.0,30.0,44,0.00,,,0.06,WeatherDisplay:10.37,2013-02-11 18:46:00,
2013-02-11 13:51:00,60.0,37.4,29.65,SW,221,41.0,41.0,43,0.00,CLR,,0.06,WeatherDisplay:10.37,2013-02-11 18:51:00,
2013-02-11 13:56:00,60.0,35.0,29.65,WSW,241,40.3,40.3,39,0.00,,,0.06,WeatherDisplay:10.37,2013-02-11 18:56:00,
2013-02-11 14:01:00,60.0,36.2,29.65,West,266,30.0,30.0,41,0.00,,,0.06,WeatherDisplay:10.37,2013-02-11 19:01:00,
2013-02-11 14:06:00,59.9,36.1,29.65,SW,232,40.3,40.3,41,0.00,,,0.06,WeatherDisplay:10.37,2013-02-11 19:06:00,
2013-02-11 14:11:00,59.8,36.0,29.65,SW,236,42.6,42.6,41,0.00,,,0.06,WeatherDisplay:10.37,2013-02-11 19:11:00,
2013-02-11 14:16:00,59.7,35.3,29.65,SW,223,44.0,44.0,40,0.00,,,0.06,WeatherDisplay:10.37,2013-02-11 19:16:00,
2013-02-11 14:21:00,59.6,33.9,29.65,WSW,257,46.0,46.0,38,0.00,,,0.06,WeatherDisplay:10.37,2013-02-11 19:21:00,
2013-02-11 14:26:00,59.0,34.1,29.64,WSW,258,42.6,42.6,39,0.00,,,0.06,WeatherDisplay:10.37,2013-02-11 19:26:00,
2013-02-11 14:31:00,59.5,35.8,29.65,SW,233,32.0,32.0,41,0.00,,,0.06,WeatherDisplay:10.37,2013-02-11 19:31:00,
2013-02-11 14:36:00,59.5,33.9,29.64,WSW,241,40.3,40.3,38,0.00,,,0.06,WeatherDisplay:10.37,2013-02-11 19:36:00,
2013-02-11 14:41:00,59.4,33.1,29.64,SW,220,40.3,40.3,37,0.00,,,0.06,WeatherDisplay:10.37,2013-02-11 19:41:00,
2013-02-11 14:46:00,59.6,34.6,29.65,WSW,241,30.0,30.0,39,0.00,CLR,,0.06,WeatherDisplay:10.37,2013-02-11 19:46:00,
2013-02-11 14:51:00,59.4,34.4,29.64,WSW,256,45.0,45.0,39,0.00,,,0.06,WeatherDisplay:10.37,2013-02-11 19:51:00,
2013-02-11 14:56:00,59.0,34.1,29.65,WSW,242,42.6,42.6,39,0.00,,,0.06,WeatherDisplay:10.37,2013-02-11 19:56:00,
2013-02-11 15:01:00,58.7,33.8,29.65,SW,236,34.5,34.5,39,0.00,,,0.06,WeatherDisplay:10.37,2013-02-11 20:01:00,
2013-02-11 15:06:00,58.6,33.7,29.65,WNW,283,31.0,31.0,39,0.00,,,0.06,WeatherDisplay:10.37,2013-02-11 20:06:00,
2013-02-11 15:11:00,58.8,33.2,29.65,SW,230,32.2,32.2,38,0.00,,,0.06,WeatherDisplay:10.37,2013-02-11 20:11:00,
2013-02-11 15:16:00,58.3,33.4,29.65,SW,225,36.0,36.0,39,0.00,,,0.06,WeatherDisplay:10.37,2013-02-11 20:16:00,
2013-02-11 15:21:00,58.2,32.0,29.65,WSW,253,41.4,41.4,37,0.00,,,0.06,WeatherDisplay:10.37,2013-02-11 20:21:00,
2013-02-11 15:26:00,58.2,32.7,29.65,SW,228,45.0,45.0,38,0.00,,,0.06,WeatherDisplay:10.37,2013-02-11 20:26:00,
2013-02-11 15:31:00,58.0,33.2,29.65,SW,236,33.4,33.4,39,0.00,CLR,,0.06,WeatherDisplay:10.37,2013-02-11 20:31:00,
2013-02-11 15:36:00,57.9,33.1,29.65,West,266,39.1,39.1,39,0.00,,,0.06,WeatherDisplay:10.37,2013-02-11 20:36:00,
2013-02-11 15:41:00,57.9,33.1,29.65,SW,229,40.3,40.3,39,0.00,,,0.06,WeatherDisplay:10.37,2013-02-11 20:41:00,
2013-02-11 15:46:00,57.7,31.6,29.65,WSW,251,47.2,47.2,37,0.00,,,0.06,WeatherDisplay:10.37,2013-02-11 20:46:00,
2013-02-11 15:51:00,57.6,32.2,29.66,WSW,254,41.4,41.4,38,0.00,,,0.06,WeatherDisplay:10.37,2013-02-11 20:51:00,
2013-02-11 15:56:00,57.4,31.3,29.65,WSW,244,48.3,48.3,37,0.00,,,0.06,WeatherDisplay:10.37,2013-02-11 20:56:00,
2013-02-11 16:01:00,57.2,32.4,29.66,SW,235,41.4,41.4,39,0.00,,,0.06,WeatherDisplay:10.37,2013-02-11 21:01:00,
2013-02-11 16:06:00,56.9,32.8,29.66,WSW,252,45.0,45.0,40,0.00,,,0.06,WeatherDisplay:10.37,2013-02-11 21:06:00,
2013-02-11 16:11:00,56.7,32.6,29.66,West,263,43.7,43.7,40,0.00,,,0.06,WeatherDisplay:10.37,2013-02-11 21:11:00,
2013-02-11 16:16:00,56.5,33.1,29.66,WSW,250,40.3,40.3,41,0.00,,,0.06,WeatherDisplay:10.37,2013-02-11 21:16:00,
2013-02-11 16:21:00,55.7,32.9,29.67,SW,230,33.0,33.0,42,0.00,,,0.06,WeatherDisplay:10.37,2013-02-11 21:21:00,
2013-02-11 16:26:00,55.3,32.0,29.67,SW,229,34.5,34.5,41,0.00,,,0.06,WeatherDisplay:10.37,2013-02-11 21:26:00,
2013-02-11 16:31:00,55.1,32.4,29.67,WSW,256,35.0,35.0,42,0.00,,,0.06,WeatherDisplay:10.37,2013-02-11 21:31:00,
2013-02-11 16:36:00,55.1,32.4,29.67,WSW,245,36.0,36.0,42,0.00,,,0.06,WeatherDisplay:10.37,2013-02-11 21:36:00,
2013-02-11 16:41:00,54.8,32.1,29.68,WNW,290,29.0,29.0,42,0.00,,,0.06,WeatherDisplay:10.37,2013-02-11 21:41:00,
2013-02-11 16:46:00,54.3,32.8,29.69,NW,315,22.0,22.0,44,0.00,CLR,,0.06,WeatherDisplay:10.37,2013-02-11 21:46:00,
2013-02-11 16:51:00,53.7,32.8,29.70,WNW,286,24.2,24.2,45,0.00,CLR,,0.06,WeatherDisplay:10.37,2013-02-11 21:51:00,
2013-02-11 16:56:00,52.7,32.5,29.70,West,280,19.0,19.0,46,0.00,CLR,,0.06,WeatherDisplay:10.37,2013-02-11 21:56:00,
2013-02-11 17:01:00,51.9,32.3,29.71,NW,317,24.2,24.2,47,0.00,CLR,,0.06,WeatherDisplay:10.37,2013-02-11 22:01:00,
2013-02-11 17:06:00,51.3,32.3,29.72,West,277,18.4,18.4,48,0.00,CLR,,0.06,WeatherDisplay:10.37,2013-02-11 22:06:00,
2013-02-11 17:11:00,50.8,32.3,29.72,WSW,256,21.9,21.9,49,0.00,CLR,,0.06,WeatherDisplay:10.37,2013-02-11 22:11:00,
2013-02-11 17:16:00,50.2,32.3,29.72,WSW,240,36.0,36.0,50,0.00,CLR,,0.06,WeatherDisplay:10.37,2013-02-11 22:16:00,
2013-02-11 17:21:00,49.6,31.7,29.73,WNW,291,20.7,20.7,50,0.00,CLR,,0.06,WeatherDisplay:10.37,2013-02-11 22:21:00,
2013-02-11 17:26:00,49.0,32.1,29.73,WSW,246,19.6,19.6,52,0.00,CLR,,0.06,WeatherDisplay:10.37,2013-02-11 22:26:00,
2013-02-11 17:31:00,48.5,31.7,29.74,WNW,295,21.0,21.0,52,0.00,CLR,,0.06,WeatherDisplay:10.37,2013-02-11 22:31:00,
2013-02-11 17:36:00,48.3,31.5,29.74,WNW,300,17.3,17.3,52,0.00,CLR,,0.06,WeatherDisplay:10.37,2013-02-11 22:36:00,
2013-02-11 17:41:00,48.0,31.2,29.74,WNW,294,17.3,17.3,52,0.00,CLR,,0.06,WeatherDisplay:10.37,2013-02-11 22:41:00,
2013-02-11 17:46:00,47.5,30.7,29.74,West,273,22.0,22.0,52,0.00,CLR,,0.06,WeatherDisplay:10.37,2013-02-11 22:46:00,
2013-02-11 17:51:00,47.1,30.8,29.75,NW,315,14.0,14.0,53,0.00,CLR,,0.06,WeatherDisplay:10.37,2013-02-11 22:51:00,
2013-02-11 17:56:00,46.5,30.3,29.75,NW,311,18.4,18.4,53,0.00,CLR,,0.06,WeatherDisplay:10.37,2013-02-11 22:56:00,
2013-02-11 18:01:00,46.1,30.4,29.76,West,269,13.0,13.0,54,0.00,CLR,,0.06,WeatherDisplay:10.37,2013-02-11 23:01:00,
2013-02-11 18:06:00,45.9,30.2,29.76,WNW,291,8.1,8.1,54,0.00,CLR,,0.06,WeatherDisplay:10.37,2013-02-11 23:06:00,
2013-02-11 18:11:00,45.6,30.3,29.77,WNW,288,14.0,14.0,55,0.00,CLR,,0.06,WeatherDisplay:10.37,2013-02-11 23:11:00,
2013-02-11 18:16:00,45.4,30.2,29.77,NW,306,21.0,21.0,55,0.00,CLR,,0.06,WeatherDisplay:10.37,2013-02-11 23:16:00,
2013-02-11 18:21:00,45.1,29.9,29.78,NNW,348,10.4,10.4,55,0.00,CLR,,0.06,WeatherDisplay:10.37,2013-02-11 23:21:00,
2013-02-11 18:26:00,44.7,29.5,29.78,WNW,299,16.1,16.1,55,0.00,CLR,,0.06,WeatherDisplay:10.37,2013-02-11 23:26:00,
2013-02-11 18:31:00,43.9,29.2,29.79,NNW,331,8.0,8.0,56,0.00,CLR,,0.06,WeatherDisplay:10.37,2013-02-11 23:31:00,
2013-02-11 18:36:00,43.4,28.7,29.79,NW,321,15.0,15.0,56,0.00,CLR,,0.06,WeatherDisplay:10.37,2013-02-11 23:36:00,
2013-02-11 18:41:00,42.9,28.7,29.80,NW,308,8.1,8.1,57,0.00,CLR,,0.06,WeatherDisplay:10.37,2013-02-11 23:41:00,
2013-02-11 18:46:00,42.6,28.4,29.80,North,350,11.5,11.5,57,0.00,CLR,,0.06,WeatherDisplay:10.37,2013-02-11 23:46:00,
2013-02-11 18:51:00,42.1,27.9,29.81,NNW,346,22.0,22.0,57,0.00,CLR,,0.06,WeatherDisplay:10.37,2013-02-11 23:51:00,
2013-02-11 18:56:00,41.8,27.7,29.81,WNW,303,15.0,15.0,57,0.00,CLR,,0.06,WeatherDisplay:10.37,2013-02-11 23:56:00,
2013-02-11 19:01:00,41.4,27.7,29.81,NNW,333,9.2,9.2,58,0.00,CLR,,0.06,WeatherDisplay:10.37,2013-02-12 00:01:00,
2013-02-11 19:06:00,41.0,27.3,29.81,NNW,331,7.0,7.0,58,0.00,CLR,,0.06,WeatherDisplay:10.37,2013-02-12 00:06:00,
2013-02-11 19:11:00,40.7,27.5,29.82,NNW,342,7.0,7.0,59,0.00,CLR,,0.06,WeatherDisplay:10.37,2013-02-12 00:11:00,
2013-02-11 19:16:00,40.5,27.3,29.82,WNW,284,10.4,10.4,59,0.00,CLR,,0.06,WeatherDisplay:10.37,2013-02-12 00:16:00,
2013-02-11 19:21:00,40.3,27.1,29.82,NW,323,11.0,11.0,59,0.00,CLR,,0.06,WeatherDisplay:10.37,2013-02-12 00:21:00,
2013-02-11 19:26:00,40.2,27.0,29.83,NW,306,7.0,7.0,59,0.00,CLR,,0.06,WeatherDisplay:10.37,2013-02-12 00:26:00,
2013-02-11 19:31:00,40.0,26.8,29.83,WNW,303,10.4,10.4,59,0.00,CLR,,0.06,WeatherDisplay:10.37,2013-02-12 00:31:00,
2013-02-11 19:36:00,39.7,26.5,29.83,NW,325,21.0,21.0,59,0.00,CLR,,0.06,WeatherDisplay:10.37,2013-02-12 00:36:00,
2013-02-11 19:41:00,39.7,26.5,29.83,NW,308,9.2,9.2,59,0.00,CLR,,0.06,WeatherDisplay:10.37,2013-02-12 00:41:00,
2013-02-11 19:46:00,39.5,26.3,29.83,WNW,298,9.2,9.2,59,0.00,CLR,,0.06,WeatherDisplay:10.37,2013-02-12 00:46:00,
2013-02-11 19:51:00,39.3,26.2,29.83,WNW,300,15.0,15.0,59,0.00,CLR,,0.06,WeatherDisplay:10.37,2013-02-12 00:51:00,
2013-02-11 19:56:00,39.3,26.2,29.84,WSW,242,13.0,13.0,59,0.00,CLR,,0.06,WeatherDisplay:10.37,2013-02-12 00:56:00,
2013-02-11 20:01:00,39.3,26.2,29.84,West,263,16.1,16.1,59,0.00,CLR,,0.06,WeatherDisplay:10.37,2013-02-12 01:01:00,
2013-02-11 20:06:00,39.1,26.4,29.84,WNW,291,12.0,12.0,60,0.00,CLR,,0.06,WeatherDisplay:10.37,2013-02-12 01:06:00,
2013-02-11 20:11:00,39.0,26.3,29.84,West,265,10.4,10.4,60,0.00,CLR,,0.06,WeatherDisplay:10.37,2013-02-12 01:11:00,
2013-02-11 20:16:00,38.8,26.1,29.84,WNW,288,6.0,6.0,60,0.00,CLR,,0.06,WeatherDisplay:10.37,2013-02-12 01:16:00,
2013-02-11 20:21:00,38.6,26.3,29.84,NW,307,11.5,11.5,61,0.00,CLR,,0.06,WeatherDisplay:10.37,2013-02-12 01:21:00,
2013-02-11 20:26:00,38.6,26.3,29.84,NW,325,5.0,5.0,61,0.00,CLR,,0.06,WeatherDisplay:10.37,2013-02-12 01:26:00,
2013-02-11 20:31:00,38.6,26.3,29.84,NW,323,9.2,9.2,61,0.00,CLR,,0.06,WeatherDisplay:10.37,2013-02-12 01:31:00,
2013-02-11 20:36:00,38.7,26.4,29.85,West,269,10.4,10.4,61,0.00,CLR,,0.06,WeatherDisplay:10.37,2013-02-12 01:36:00,
2013-02-11 20:41:00,38.8,26.1,29.85,WNW,299,10.0,10.0,60,0.00,CLR,,0.06,WeatherDisplay:10.37,2013-02-12 01:41:00,
2013-02-11 20:46:00,38.8,26.1,29.85,WNW,294,10.4,10.4,60,0.00,CLR,,0.06,WeatherDisplay:10.37,2013-02-12 01:46:00,
2013-02-11 20:51:00,38.7,26.4,29.86,West,281,11.5,11.5,61,0.00,CLR,,0.06,WeatherDisplay:10.37,2013-02-12 01:51:00,
2013-02-11 20:56:00,38.7,26.4,29.86,West,271,7.0,7.0,61,0.00,CLR,,0.06,WeatherDisplay:10.37,2013-02-12 01:56:00,
2013-02-11 21:01:00,38.8,26.5,29.86,NW,310,11.5,11.5,61,0.00,CLR,,0.06,WeatherDisplay:10.37,2013-02-12 02:01:00,
2013-02-11 21:06:00,38.9,26.6,29.86,WNW,288,11.5,11.5,61,0.00,CLR,,0.06,WeatherDisplay:10.37,2013-02-12 02:06:00,
2013-02-11 21:11:00,39.0,26.7,29.86,WSW,257,8.1,8.1,61,0.00,CLR,,0.06,WeatherDisplay:10.37,2013-02-12 02:11:00,
2013-02-11 21:16:00,38.9,26.6,29.86,WNW,288,8.0,8.0,61,0.00,CLR,,0.06,WeatherDisplay:10.37,2013-02-12 02:16:00,
2013-02-11 21:21:00,38.8,26.5,29.87,WNW,294,8.1,8.1,61,0.00,CLR,,0.06,WeatherDisplay:10.37,2013-02-12 02:21:00,
2013-02-11 21:26:00,38.8,26.5,29.87,WNW,303,11.5,11.5,61,0.00,CLR,,0.06,WeatherDisplay:10.37,2013-02-12 02:26:00,
2013-02-11 21:31:00,38.7,26.4,29.87,NW,304,13.0,13.0,61,0.00,CLR,,0.06,WeatherDisplay:10.37,2013-02-12 02:31:00,
2013-02-11 21:36:00,38.7,26.4,29.87,West,265,11.0,11.0,61,0.00,CLR,,0.06,WeatherDisplay:10.37,2013-02-12 02:36:00,
2013-02-11 21:41:00,38.7,26.4,29.87,WSW,253,18.4,18.4,61,0.00,CLR,,0.06,WeatherDisplay:10.37,2013-02-12 02:41:00,
2013-02-11 21:46:00,38.6,26.3,29.88,WNW,296,15.0,15.0,61,0.00,CLR,,0.06,WeatherDisplay:10.37,2013-02-12 02:46:00,
2013-02-11 21:51:00,38.5,26.6,29.88,West,280,12.0,12.0,62,0.00,CLR,,0.06,WeatherDisplay:10.37,2013-02-12 02:51:00,
2013-02-11 21:56:00,38.4,26.5,29.88,NW,323,11.5,11.5,62,0.00,CLR,,0.06,WeatherDisplay:10.37,2013-02-12 02:56:00,
2013-02-11 22:01:00,38.3,27.9,29.88,WNW,295,15.0,15.0,66,0.00,CLR,,0.06,WeatherDisplay:10.37,2013-02-12 03:01:00,
2013-02-11 22:06:00,38.3,26.4,29.88,NW,318,22.0,22.0,62,0.00,CLR,,0.06,WeatherDisplay:10.37,2013-02-12 03:06:00,
2013-02-11 22:11:00,38.2,26.7,29.89,West,271,21.0,21.0,63,0.00,CLR,,0.06,WeatherDisplay:10.37,2013-02-12 03:11:00,
2013-02-11 22:16:00,38.1,26.6,29.88,WSW,256,21.9,21.9,63,0.00,CLR,,0.06,WeatherDisplay:10.37,2013-02-12 03:16:00,
2013-02-11 22:21:00,37.9,26.8,29.89,WSW,257,16.1,16.1,64,0.00,CLR,,0.06,WeatherDisplay:10.37,2013-02-12 03:21:00,
2013-02-11 22:26:00,37.9,26.8,29.89,West,259,14.0,14.0,64,0.00,CLR,,0.06,WeatherDisplay:10.37,2013-02-12 03:26:00,
2013-02-11 22:31:00,37.8,26.7,29.89,SW,229,19.6,19.6,64,0.00,CLR,,0.06,WeatherDisplay:10.37,2013-02-12 03:31:00,
2013-02-11 22:36:00,37.8,26.7,29.89,West,271,14.0,14.0,64,0.00,CLR,,0.06,WeatherDisplay:10.37,2013-02-12 03:36:00,
2013-02-11 22:41:00,37.8,26.3,29.88,West,269,30.0,30.0,63,0.00,CLR,,0.06,WeatherDisplay:10.37,2013-02-12 03:41:00,
2013-02-11 22:46:00,37.7,25.8,29.89,West,261,26.5,26.5,62,0.00,CLR,,0.06,WeatherDisplay:10.37,2013-02-12 03:46:00,
2013-02-11 22:51:00,37.6,25.7,29.89,WNW,292,16.1,16.1,62,0.00,CLR,,0.06,WeatherDisplay:10.37,2013-02-12 03:51:00,
2013-02-11 22:56:00,37.5,25.7,29.89,West,267,21.0,21.0,62,0.00,CLR,,0.06,WeatherDisplay:10.37,2013-02-12 03:56:00,
2013-02-11 23:01:00,37.5,25.3,29.89,WNW,288,21.0,21.0,61,0.00,CLR,,0.06,WeatherDisplay:10.37,2013-02-12 04:01:00,
2013-02-11 23:06:00,37.4,25.2,29.89,WNW,288,23.0,23.0,61,0.00,CLR,,0.06,WeatherDisplay:10.37,2013-02-12 04:06:00,
2013-02-11 23:11:00,37.4,24.8,29.89,West,261,24.2,24.2,60,0.00,CLR,,0.06,WeatherDisplay:10.37,2013-02-12 04:11:00,
2013-02-11 23:16:00,37.3,24.7,29.89,NW,310,20.0,20.0,60,0.00,CLR,,0.06,WeatherDisplay:10.37,2013-02-12 04:16:00,
2013-02-11 23:21:00,37.3,24.7,29.90,West,270,19.6,19.6,60,0.00,CLR,,0.06,WeatherDisplay:10.37,2013-02-12 04:21:00,
2013-02-11 23:26:00,37.2,24.6,29.90,West,265,19.6,19.6,60,0.00,CLR,,0.06,WeatherDisplay:10.37,2013-02-12 04:26:00,
2013-02-11 23:31:00,37.1,24.5,29.90,West,269,14.0,14.0,60,0.00,CLR,,0.06,WeatherDisplay:10.37,2013-02-12 04:31:00,
2013-02-11 23:36:00,37.0,24.4,29.91,WSW,257,20.0,20.0,60,0.00,CLR,,0.06,WeatherDisplay:10.37,2013-02-12 04:36:00,
2013-02-11 23:41:00,37.0,24.4,29.90,West,267,24.0,24.0,60,0.00,CLR,,0.06,WeatherDisplay:10.37,2013-02-12 04:41:00,
2013-02-11 23:46:00,36.9,24.3,29.90,West,260,25.3,25.3,60,0.00,CLR,,0.06,WeatherDisplay:10.37,2013-02-12 04:46:00,
2013-02-11 23:51:00,37.0,24.4,29.90,WSW,249,26.5,26.5,60,0.00,CLR,,0.06,WeatherDisplay:10.37,2013-02-12 04:51:00,
2013-02-11 23:56:00,36.9,24.3,29.91,West,271,19.6,19.6,60,0.00,CLR,,0.06,WeatherDisplay:10.37,2013-02-12 04:56:00,